• In Hungary
  • List of Countries
  • For 7 days
  • Water Temperature
  • Satellite Maps
  • Weather Map
  • News
  • Weather Widgets
  • user-avatar
    Login

    Hourly Weather Kuta

    Today, 20 September, Wednesday

    Time Temperature Precipitation Wind Pressure Humidity
    00:00 +27°C° 0 mm 3 mps 758 mmHg 87%
    01:00 +27°C° 0 mm 3 mps 757 mmHg 87%
    02:00 +27°C° 0 mm 3 mps 757 mmHg 87%
    03:00 +27°C° 0 mm 4 mps 757 mmHg 87%
    04:00 +27°C° 0 mm 4 mps 757 mmHg 88%
    05:00 +27°C° 0 mm 4 mps 757 mmHg 88%
    06:00 +27°C° 0 mm 2 mps 757 mmHg 91%
    07:00 +29°C° 1.1 mm 3 mps 758 mmHg 87%
    08:00 +30°C° 1.1 mm 3 mps 758 mmHg 83%
    09:00 +32°C° 1.1 mm 4 mps 758 mmHg 78%
    10:00 +32°C° 0.9 mm 4 mps 758 mmHg 77%
    11:00 +33°C° 0.9 mm 4 mps 757 mmHg 76%
    12:00 +33°C° 0.9 mm 4 mps 757 mmHg 74%
    13:00 +33°C° 0.4 mm 5 mps 757 mmHg 74%
    14:00 +32°C° 0.4 mm 5 mps 756 mmHg 74%
    15:00 +32°C° 0.4 mm 5 mps 756 mmHg 74%
    16:00 +30°C° 0.1 mm 5 mps 756 mmHg 77%
    17:00 +29°C° 0.1 mm 5 mps 756 mmHg 80%
    18:00 +28°C° 0.1 mm 5 mps 756 mmHg 83%
    19:00 +28°C° 0.1 mm 5 mps 757 mmHg 83%
    20:00 +27°C° 0.1 mm 5 mps 757 mmHg 83%
    21:00 +27°C° 0.1 mm 5 mps 758 mmHg 83%
    22:00 +27°C° 0 mm 6 mps 758 mmHg 82%
    23:00 +27°C° 0 mm 6 mps 758 mmHg 81%

    Tomorrow, 21 September, Thursday

    Time Temperature Precipitation Wind Pressure Humidity
    00:00 +27°C° 0 mm 6 mps 758 mmHg 81%
    01:00 +27°C° 0 mm 6 mps 757 mmHg 80%
    02:00 +26°C° 0 mm 6 mps 757 mmHg 80%
    03:00 +26°C° 0 mm 6 mps 756 mmHg 80%
    04:00 +26°C° 0 mm 6 mps 756 mmHg 80%
    05:00 +26°C° 0 mm 6 mps 757 mmHg 80%
    06:00 +26°C° 0 mm 6 mps 757 mmHg 80%
    07:00 +27°C° 0 mm 6 mps 757 mmHg 75%
    08:00 +29°C° 0 mm 6 mps 758 mmHg 71%
    09:00 +30°C° 0 mm 6 mps 758 mmHg 67%
    10:00 +32°C° 0 mm 6 mps 758 mmHg 62%
    11:00 +33°C° 0 mm 6 mps 757 mmHg 57%
    12:00 +34°C° 0 mm 6 mps 757 mmHg 53%
    13:00 +34°C° 0 mm 6 mps 756 mmHg 55%
    14:00 +33°C° 0 mm 6 mps 756 mmHg 57%
    15:00 +33°C° 0 mm 6 mps 755 mmHg 59%
    16:00 +32°C° 0 mm 6 mps 756 mmHg 64%
    17:00 +29°C° 0 mm 6 mps 756 mmHg 68%
    18:00 +28°C° 0 mm 5 mps 756 mmHg 73%
    19:00 +28°C° 0 mm 5 mps 757 mmHg 72%
    20:00 +28°C° 0 mm 6 mps 758 mmHg 71%
    21:00 +27°C° 0 mm 6 mps 758 mmHg 71%
    22:00 +27°C° 0 mm 6 mps 758 mmHg 70%
    23:00 +27°C° 0 mm 6 mps 758 mmHg 70%

    Day after tomorrow, 22 September, Friday

    Time Temperature Precipitation Wind Pressure Humidity
    00:00 +27°C° 0 mm 5 mps 757 mmHg 69%
    01:00 +27°C° 0 mm 5 mps 757 mmHg 70%
    02:00 +27°C° 0 mm 5 mps 756 mmHg 70%
    03:00 +26°C° 0 mm 5 mps 756 mmHg 70%
    04:00 +26°C° 0 mm 5 mps 756 mmHg 71%
    05:00 +26°C° 0 mm 5 mps 757 mmHg 72%
    06:00 +26°C° 0 mm 5 mps 757 mmHg 73%
    07:00 +28°C° 0 mm 5 mps 757 mmHg 68%
    08:00 +30°C° 0 mm 5 mps 758 mmHg 63%
    09:00 +33°C° 0 mm 5 mps 758 mmHg 58%
    10:00 +34°C° 0 mm 5 mps 758 mmHg 56%
    11:00 +34°C° 0 mm 6 mps 757 mmHg 54%
    12:00 +35°C° 0 mm 6 mps 757 mmHg 53%
    13:00 +34°C° 0 mm 6 mps 756 mmHg 54%
    14:00 +34°C° 0 mm 6 mps 756 mmHg 56%
    15:00 +34°C° 0 mm 7 mps 755 mmHg 57%
    16:00 +32°C° 0.1 mm 6 mps 756 mmHg 63%
    17:00 +30°C° 0.1 mm 6 mps 756 mmHg 69%
    18:00 +28°C° 0.1 mm 6 mps 757 mmHg 75%
    19:00 +28°C° 0 mm 6 mps 757 mmHg 76%
    20:00 +28°C° 0 mm 5 mps 758 mmHg 76%
    21:00 +27°C° 0 mm 5 mps 759 mmHg 77%
    22:00 +27°C° 0 mm 5 mps 758 mmHg 76%
    23:00 +27°C° 0 mm 5 mps 758 mmHg 75%

    23 September, Saturday

    Time Temperature Precipitation Wind Pressure Humidity
    00:00 +27°C° 0 mm 5 mps 758 mmHg 74%
    01:00 +27°C° 0 mm 5 mps 757 mmHg 75%
    02:00 +27°C° 0 mm 5 mps 757 mmHg 75%
    03:00 +27°C° 0 mm 5 mps 756 mmHg 75%
    04:00 +27°C° 0 mm 5 mps 756 mmHg 75%
    05:00 +27°C° 0 mm 5 mps 757 mmHg 76%
    06:00 +27°C° 0 mm 5 mps 757 mmHg 76%
    07:00 +28°C° 0 mm 5 mps 758 mmHg 71%
    08:00 +29°C° 0 mm 5 mps 758 mmHg 66%
    09:00 +32°C° 0 mm 5 mps 759 mmHg 61%
    10:00 +33°C° 0 mm 5 mps 758 mmHg 57%
    11:00 +34°C° 0 mm 6 mps 758 mmHg 53%
    12:00 +35°C° 0 mm 6 mps 757 mmHg 50%
    13:00 +34°C° 0 mm 6 mps 757 mmHg 51%
    14:00 +34°C° 0 mm 6 mps 756 mmHg 51%
    15:00 +34°C° 0 mm 6 mps 756 mmHg 52%
    16:00 +33°C° 0 mm 5 mps 756 mmHg 58%
    17:00 +30°C° 0 mm 5 mps 756 mmHg 63%
    18:00 +29°C° 0 mm 5 mps 757 mmHg 69%
    19:00 +28°C° 0 mm 5 mps 757 mmHg 70%
    20:00 +28°C° 0 mm 5 mps 758 mmHg 71%
    21:00 +28°C° 0 mm 5 mps 758 mmHg 72%
    22:00 +28°C° 0 mm 5 mps 758 mmHg 72%
    23:00 +27°C° 0 mm 5 mps 758 mmHg 71%

    24 September, Sunday

    Time Temperature Precipitation Wind Pressure Humidity
    00:00 +27°C° 0 mm 5 mps 757 mmHg 71%
    01:00 +27°C° 0 mm 5 mps 757 mmHg 71%
    02:00 +27°C° 0 mm 5 mps 756 mmHg 72%
    03:00 +27°C° 0 mm 5 mps 756 mmHg 72%
    04:00 +27°C° 0 mm 5 mps 756 mmHg 73%
    05:00 +27°C° 0 mm 5 mps 757 mmHg 75%
    06:00 +27°C° 0 mm 5 mps 757 mmHg 76%
    07:00 +29°C° 0 mm 5 mps 757 mmHg 68%
    08:00 +32°C° 0 mm 5 mps 758 mmHg 60%
    09:00 +35°C° 0 mm 5 mps 758 mmHg 51%
    10:00 +35°C° 0 mm 5 mps 758 mmHg 48%
    11:00 +36°C° 0 mm 5 mps 757 mmHg 45%
    12:00 +38°C° 0 mm 6 mps 756 mmHg 42%
    13:00 +38°C° 0 mm 6 mps 756 mmHg 43%
    14:00 +36°C° 0 mm 6 mps 755 mmHg 45%
    15:00 +36°C° 0 mm 6 mps 755 mmHg 46%
    16:00 +34°C° 0 mm 6 mps 755 mmHg 53%
    17:00 +32°C° 0 mm 6 mps 756 mmHg 61%
    18:00 +29°C° 0 mm 6 mps 756 mmHg 69%
    19:00 +28°C° 0 mm 5 mps 757 mmHg 71%
    20:00 +28°C° 0 mm 5 mps 757 mmHg 73%
    21:00 +27°C° 0 mm 5 mps 758 mmHg 75%
    22:00 +27°C° 0.1 mm 4 mps 757 mmHg 74%
    23:00 +27°C° 0.1 mm 4 mps 757 mmHg 73%

    25 September, Monday

    Time Temperature Precipitation Wind Pressure Humidity
    00:00 +27°C° 0.1 mm 4 mps 757 mmHg 72%
    01:00 +27°C° 0.3 mm 4 mps 756 mmHg 72%
    02:00 +27°C° 0.3 mm 4 mps 756 mmHg 73%
    03:00 +26°C° 0.3 mm 4 mps 756 mmHg 74%
    04:00 +27°C° 0.1 mm 4 mps 756 mmHg 74%
    05:00 +27°C° 0.1 mm 4 mps 756 mmHg 75%
    06:00 +27°C° 0.1 mm 4 mps 757 mmHg 75%
    07:00 +29°C° 0 mm 4 mps 757 mmHg 69%
    08:00 +30°C° 0 mm 4 mps 757 mmHg 63%
    09:00 +33°C° 0 mm 4 mps 758 mmHg 57%
    10:00 +34°C° 0.1 mm 4 mps 757 mmHg 54%
    11:00 +35°C° 0.1 mm 5 mps 756 mmHg 52%
    12:00 +36°C° 0.1 mm 5 mps 756 mmHg 49%
    13:00 +35°C° 0 mm 5 mps 755 mmHg 52%
    14:00 +35°C° 0 mm 5 mps 755 mmHg 55%
    15:00 +34°C° 0 mm 6 mps 755 mmHg 58%
    16:00 +33°C° 0.1 mm 5 mps 755 mmHg 64%
    17:00 +30°C° 0.1 mm 5 mps 756 mmHg 71%
    18:00 +29°C° 0.1 mm 5 mps 756 mmHg 78%
    19:00 +28°C° 0.1 mm 5 mps 757 mmHg 79%
    20:00 +28°C° 0.1 mm 5 mps 757 mmHg 79%
    21:00 +28°C° 0.1 mm 4 mps 758 mmHg 80%
    22:00 +28°C° 0 mm 4 mps 757 mmHg 80%
    23:00 +27°C° 0 mm 4 mps 757 mmHg 79%
    Show more